Home > Weather > Braunschweig > Past weeks

Flag for Germany Past Weather in Braunschweig, Lower Saxony, Germany — Yesterday and Last 2 Weeks

Now
64 °F

Passing clouds.


Feels Like: 64 °F
Forecast: 55 / 75 °F
Wind: 7 mph from Northeast

Location: Celle Airport

Current Time: May 31, 2016 at 12:22:15 AM

Latest Report: May 30, 2016 at 11:20 PM


Visibility: N/A

Pressure: 29.71 "Hg

Humidity: 88%

Dew Point: 61 °F

Location of BraunschweigLocation

Past Weather in Braunschweig — Graph

°F

Braunschweig Temperature Yesterday

Maximum temperature yesterday: 79 °F (at 2:20 PM)
Minimum temperature yesterday: 61 °F (at 2:20 AM)
Average temperature yesterday: 68 °F

High & Low Weather Summary for the Past Weeks

 TemperatureHumidityPressure
High82 °F (May 22, 2:20 PM)100% (May 20, 11:20 PM)30.04 "Hg (May 20, 11:20 PM)
Low39 °F (May 16, 4:20 AM)32% (May 22, 2:20 PM)29.62 "Hg (May 30, 10:20 AM)
Average59 °F75%29.91 "Hg
* Reported May 15 10:20 PM — May 30 10:20 PM, Braunschweig, Weather by CustomWeather, © 2016

Note: Actual official high and low records may vary slightly from our data, if they occured in-between our weather recording intervals... More about our weather records

Advertising

Braunschweig Weather History for the Previous 24 Hours

Scroll right to see more
 ConditionsComfort  
Time TempWeatherWind HumidityBarometerVisibility
10:20 PM
Mon, May 30
64 °FPartly sunny.7 mph94%29.71 "HgN/A
9:20 PM66 °FPartly sunny.9 mph83%29.68 "HgN/A
8:20 PM68 °FPartly sunny.10 mph83%29.68 "HgN/A
7:20 PM68 °FPartly sunny.12 mph83%29.65 "HgN/A
6:20 PM68 °FPartly sunny.8 mph83%29.65 "HgN/A
5:20 PM66 °FThunderstorms. Broken clouds.5 mph83%29.65 "HgN/A
4:53 PM70 °FThunderstorms. Partly sunny.14 mph73%29.65 "Hg3 mi
4:20 PM72 °FThundershowers. Scattered clouds.9 mph73%29.62 "HgN/A
3:20 PM75 °FThunderstorms. Partly sunny.16 mph65%29.62 "Hg5 mi
2:20 PM79 °FScattered clouds.15 mph58%29.62 "HgN/A
1:20 PM77 °FPassing clouds.14 mph61%29.62 "HgN/A
12:20 PM73 °FScattered clouds.14 mph69%29.62 "HgN/A
11:20 AM73 °FScattered clouds.13 mph69%29.62 "HgN/A
10:20 AM72 °FScattered clouds.12 mph73%29.62 "HgN/A
9:20 AM68 °FScattered clouds.12 mph78%29.65 "HgN/A
8:20 AM66 °FScattered clouds.12 mph78%29.65 "HgN/A
7:20 AM64 °FPartly sunny.10 mph88%29.65 "HgN/A
6:20 AM63 °FPartly sunny.7 mph88%29.65 "Hg6 mi
5:20 AM61 °FPassing clouds.7 mph94%29.65 "Hg5 mi
4:20 AM61 °FFog.2 mph94%29.65 "Hg5 mi
3:20 AM61 °FFog.5 mph100%29.65 "Hg6 mi
2:20 AM61 °FFog.5 mph100%29.68 "HgN/A
1:20 AM63 °FPassing clouds.5 mph94%29.68 "Hg6 mi
12:20 AM63 °FPartly cloudy.3 mph100%29.71 "Hg4 mi
Weather by CustomWeather, © 2016

See weather overviewHow to use our weather pages